Flag for Bahrain Weather past 2 weeks in Riffa, Bahrain

Now
93 °F

Clear.


Feels Like: 110 °F
Forecast: 89 / 102 °F
Wind: 5 mph from South

Location: Bahrain International Airport

Current Time: Aug 21, 2014 at 1:37:54 AM

Latest Report: Aug 21, 2014 at 1:00 AM


Visibility: 4 mi

Pressure: 29.59 "Hg

Humidity: 63%

Dew point: 79 °F

Location of RiffaLocation

Historic Weather in Riffa — Graph

°F

Riffa temperature yesterday

Maximum temperature yesterday: 102 °F (at 11:00 AM)
Minimum temperature yesterday: 91 °F (at 3:00 AM)
Average temperature yesterday: 96 °F

Past Weeks' High & Low Weather Summary

 TemperatureHumidityPressure
High106 °F (Aug 15, 11:00 AM)80% (Aug 20, 3:00 AM)29.71 "Hg (Aug 20, 3:00 AM)
Low88 °F (Aug 11, 3:00 AM)21% (Aug 6, 11:00 AM)29.39 "Hg (Aug 8, 6:00 PM)
Average95 °F54%29.51 "Hg
* Reported Midnight between Aug 5 and Aug 6 — Midnight between Aug 20 and Aug 21, Riffa, Weather by CustomWeather, © 2014

Note: Actual official high and low records may vary slightly from our data, if they occured in-between our weather recording intervals... More about our weather records

Advertising

Riffa weather history for previous 24 hours

 ConditionsComfort  
Time TempWeatherWind HumidityBarometerVisibility
12:00 AM
Aug 21
93 °FClear.3 mph59%29.62 "Hg4 mi
11:00 PM
Aug 20
93 °FClear.3 mph63%29.62 "Hg4 mi
10:00 PM93 °FClear.3 mph59%29.62 "Hg4 mi
9:00 PM95 °FClear.7 mph56%29.65 "Hg4 mi
8:00 PM95 °FClear.8 mph53%29.62 "Hg5 mi
7:00 PM95 °FClear.9 mph56%29.62 "Hg5 mi
6:00 PM95 °FSunny.9 mph60%29.62 "Hg6 mi
5:00 PM97 °FSunny.10 mph56%29.62 "Hg6 mi
4:00 PM99 °FSunny.10 mph47%29.65 "Hg6 mi
3:00 PM99 °FSunny.13 mph57%29.65 "Hg6 mi
2:00 PM99 °FSunny.12 mph47%29.68 "Hg10 mi
1:00 PM100 °FSunny.10 mph45%29.68 "Hg10 mi
12:00 PM102 °FSunny.8 mph33%29.68 "Hg10 mi
11:00 AM102 °FSunny.8 mph40%29.71 "Hg10 mi
10:00 AM99 °FSunny.7 mph57%29.71 "Hg10 mi
9:00 AM97 °FSunny.8 mph60%29.71 "Hg10 mi
8:00 AM95 °FSunny.7 mph63%29.71 "Hg6 mi
7:00 AM93 °FSunny.3 mph71%29.71 "Hg6 mi
6:00 AM91 °FSunny.6 mph75%29.71 "Hg5 mi
5:00 AM91 °FPassing clouds.6 mph80%29.68 "Hg4 mi
4:00 AM91 °FPassing clouds.6 mph80%29.68 "Hg4 mi
3:00 AM91 °FClear.No wind80%29.68 "Hg4 mi
2:00 AM93 °FClear.3 mph75%29.65 "Hg4 mi
1:00 AM93 °FClear.3 mph71%29.65 "Hg4 mi
Weather by CustomWeather, © 2014

See weather overviewHow to use our weather pages